Preview of NWS' New Version of Forecast
This preview is not operational and should not be used for support decisions.

Regional Weather Roundup (RWR)

Issued by National Weather Service (NWS)

                            
000
ASUS46 KPQR 231710
RWROR 

OREGON REGIONAL WEATHER ROUNDUP
NATIONAL WEATHER SERVICE PORTLAND OR
1000 AM PDT SUN JUN 23 2019

NOTE: "FAIR" INDICATES FEW OR NO CLOUDS BELOW 12,000 FEET WITH
NO SIGNIFICANT WEATHER AND/OR OBSTRUCTIONS TO VISIBILITY.

ORZ001>013-231800-
NORTHWEST OREGON

  
CITY           SKY/WX    TMP DP  RH WIND       PRES   REMARKS
ASTORIA        CLOUDY    56  51  84 W7        30.24S                  
TILLAMOOK      CLOUDY    55  48  76 CALM      30.27S                  
NEWPORT        CLOUDY    57  50  77 CALM      30.29S                  
PORTLAND       CLOUDY    59  46  62 W6        30.24S                  
VANCOUVER WA   CLOUDY    58  46  64 NW6       30.24S                  
SCAPPOOSE      CLOUDY    59  48  67 VRB5      30.23S                  
HILLSBORO      PTSUNNY   60  47  61 NW7       30.23F                  
AURORA         CLOUDY    61  46  57 VRB5      30.25S                  
MCMINNVILLE    CLOUDY    61  49  64 CALM      30.23F                  
SALEM          CLOUDY    61  48  62 VRB5      30.23S                  
CORVALLIS      CLOUDY    61  49  64 CALM      30.24F                  
EUGENE         PTSUNNY   64  48  56 N5        30.23F                  
$$

ORZ021-028-231800-
SOUTHWEST OREGON

  
CITY           SKY/WX    TMP DP  RH WIND       PRES   REMARKS
NORTH BEND     CLOUDY    58  51  78 N15       30.26S                  
BROOKINGS      SUNNY     74  47  38 NW9       30.11S                  
ROSEBURG       CLOUDY    60  50  69 VRB3      30.23S                  
SEXTON SUMMIT  SUNNY     58  47  66 CALM      30.22S                  
GRANTS PASS    FAIR      68  48  49 CALM      30.21F                  
MEDFORD        SUNNY     68  45  43 VRB5      30.17F                  
$$

ORZ014>016-041-231800-
COLUMBIA GORGE

  
CITY           SKY/WX    TMP DP  RH WIND       PRES   REMARKS
TROUTDALE      CLOUDY    59  48  67 W5        30.24S                  
HOOD RIVER     MOSUNNY   61  45  55 NW16G23   30.17S                  
THE DALLES     MOSUNNY   66  46  48 NW14G21   30.13S                  
$$

ORZ029>031-041-044-049-050-061>064-502-503-505>511-231800-
EASTERN OREGON

  
CITY           SKY/WX    TMP DP  RH WIND       PRES   REMARKS
MADRAS         SUNNY     61  39  44 W5        30.17F                  
REDMOND        SUNNY     65  36  34 NW7       30.15F                  
BEND           SUNNY     63  32  31 W10       30.16S                  
PRINEVILLE     SUNNY     61  34  36 W8G14     30.16S                  
KLAMATH FALLS  SUNNY     64  38  38 W7        30.18F                  
LAKEVIEW       SUNNY     63  37  38 SE8       30.19F                  
HERMISTON      SUNNY     71  47  42 W23       30.05F                  
PENDLETON      CLOUDY    67  44  43 W16       30.07S                  
JOHN DAY       MOSUNNY   60  40  47 NW8       30.13F                  
MEACHAM        CLOUDY    51  42  71 VRB3      30.12S                  
LA GRANDE      CLOUDY    59  40  49 W10       30.11S                  
BAKER CITY     SUNNY     63  42  46 N15G21    30.09S                  
BURNS          SUNNY     62  34  35 W9        30.14F                  
ROME             N/A     71  32  23 SW8       30.08F                  
ONTARIO        SUNNY     75  35  23 NW15      30.04F                  
$$